CAPE
0 0 0 0 0 0 0 0 0 0 0 0 0 0 12 33 27 117 80 132 195 267 333 400 724 546 306 272 253 398 616 557 472 228 39 55 80 168 17 109 288 56 22 10 17 14 12 9 4
0 0 0 0 0 0 0 0 0 0 0 0 0 0 0 56 22 36 60 111 147 200 208 192 422 511 424 368 447 472 384 281 116 44 23 9 88 163 31 33 70 92 20 18 14 5 2 0 0
0 0 0 0 0 0 0 0 0 0 0 0 0 0 0 36 0 34 45 78 97 134 397 181 354 377 264 354 546 400 346 125 104 23 10 12 65 131 37 32 42 45 23 15 15 5 2 0 0
0 0 0 0 0 0 0 0 0 0 0 0 0 0 0 3 0 36 52 62 104 132 238 109 354 357 302 453 488 317 178 134 46 11 9 9 15 36 41 34 26 42 24 9 17 6 1 0 0
0 0 0 0 0 0 0 0 0 0 0 0 0 0 0 4 4 6 43 69 29 92 149 49 232 326 417 561 282 180 117 45 75 18 23 20 16 27 33 42 27 23 7 15 8 3 0 0 0
0 0 0 0 0 0 0 0 0 0 0 0 0 0 4 15 6 9 35 12 64 121 139 40 75 98 260 331 299 133 70 39 22 23 47 17 14 16 32 32 22 13 10 4 1 1 0 0 0
0 0 0 0 0 0 0 0 0 0 0 0 0 0 1 9 5 5 98 27 133 90 138 34 1 5 50 21 40 49 62 51 55 72 60 42 31 34 36 40 20 9 2 0 0 0 0 0 0
0 0 0 0 0 0 0 0 0 0 0 0 0 0 0 6 139 17 9 13 25 29 87 11 6 9 6 13 0 6 13 37 35 15 0 1 11 11 9 4 11 1 0 0 0 0 0 0 0
2 0 0 0 0 0 0 0 0 0 0 0 0 0 0 5 17 11 6 9 3 24 86 7 4 8 8 4 0 0 0 2 0 0 0 2 6 9 12 0 3 0 0 0 0 0 0 0 0
2 0 0 0 0 0 0 0 0 0 0 0 0 0 1 5 7 7 7 10 6 6 44 37 2 1 2 0 0 5 0 10 20 7 9 5 5 4 1 0 0 0 0 0 0 0 0 0 0
20 0 0 0 0 0 0 0 0 0 0 0 0 0 3 10 9 6 0 0 0 2 31 80 14 0 0 0 1 0 0 1 16 15 9 5 0 0 0 0 0 0 0 0 0 0 0 0 0
4 0 0 0 0 0 0 0 0 0 0 0 0 0 1 3 1 0 0 0 0 1 12 89 38 2 0 0 0 0 0 0 0 4 1 0 0 0 0 0 0 0 0 0 0 0 0 0 0
0 2 0 1 0 0 0 0 0 0 0 0 0 0 2 2 1 1 0 0 0 0 3 10 100 12 2 0 0 0 0 0 0 0 0 0 0 0 0 0 0 0 0 0 0 0 0 0 0
16 15 7 0 4 1 0 0 0 0 0 0 0 0 0 0 0 1 0 0 0 0 0 2 19 38 4 1 0 0 0 0 0 0 0 0 0 0 0 0 1 0 0 0 0 0 0 0 0
12 59 40 1 1 0 1 0 0 0 0 0 0 0 0 0 0 48 0 0 0 0 0 4 1 5 7 5 1 0 0 0 0 0 0 0 0 0 0 3 2 2 0 0 0 0 0 3 1
15 14 7 0 2 3 2 0 0 0 0 0 0 0 0 0 0 15 0 0 0 0 0 0 1 4 2 9 1 0 0 0 0 0 2 0 0 0 0 3 2 0 0 3 9 11 13 12 16
3 13 5 0 1 1 1 0 0 0 0 0 0 0 0 0 0 0 5 0 0 0 0 0 0 0 1 2 0 1 0 0 0 0 0 1 0 0 0 3 6 0 0 10 6 12 13 29 54
1 3 0 0 0 0 0 0 1 0 0 0 0 0 0 0 0 0 4 11 0 0 0 0 0 0 0 0 0 0 1 0 0 0 4 10 5 0 0 13 24 13 4 7 5 13 24 44 35
4 0 0 0 0 0 0 0 0 0 0 0 0 0 0 0 0 0 0 0 0 0 0 0 0 0 0 0 0 0 0 0 0 0 3 19 10 0 2 18 31 27 14 24 35 22 31 32 35
0 0 0 0 0 0 0 0 0 0 0 0 0 0 0 0 0 0 0 0 7 11 0 0 0 0 0 0 0 0 0 0 0 0 1 2 8 5 7 20 20 36 41 35 33 25 41 45 30
2 0 0 0 0 0 0 0 0 0 0 0 0 0 0 0 0 0 0 0 37 59 57 19 0 0 0 0 0 0 2 9 11 13 29 8 12 15 18 18 20 20 28 39 25 25 53 37 15
1 0 3 0 0 0 0 0 0 0 0 0 0 0 0 0 0 0 0 0 10 77 121 111 101 41 0 0 0 1 7 8 9 26 14 2 17 22 22 23 26 29 26 58 75 49 69 41 16
3 8 2 2 0 0 0 0 0 0 0 0 0 0 0 0 0 0 0 0 0 5 57 112 106 120 94 48 37 69 68 71 66 76 141 87 62 33 25 28 36 53 84 84 63 61 67 27 24
0 0 0 0 0 0 0 0 0 0 0 0 0 0 0 0 0 0 0 0 0 0 12 22 50 95 130 137 126 108 131 123 150 180 179 166 82 50 30 35 52 62 55 55 58 70 40 8 7
24 17 0 0 0 0 0 0 0 0 0 0 0 0 0 0 0 0 0 0 0 0 6 8 0 7 72 168 172 149 144 160 150 204 189 145 46 43 4 26 31 50 16 43 61 60 9 7 4
7 4 1 0 0 0 0 0 0 0 0 0 0 0 0 0 0 0 0 0 0 0 0 0 0 0 5 64 145 176 173 156 195 208 169 96 23 56 51 1 5 19 32 49 58 27 10 6 1
0 0 0 0 0 0 0 0 0 0 0 0 0 0 0 0 0 0 0 0 0 0 0 0 0 0 0 9 40 103 129 183 175 184 205 127 67 16 85 28 3 14 35 34 28 10 7 5 0
0 0 0 0 0 0 0 0 0 0 0 0 0 0 0 0 0 0 0 0 0 0 0 0 0 0 0 0 1 18 59 66 38 34 66 96 144 22 51 109 70 15 19 30 5 0 0 1 0
0 0 0 0 0 0 0 0 0 0 0 0 0 0 0 0 0 0 0 0 0 0 0 0 0 0 0 0 0 0 3 0 2 3 13 26 128 37 48 292 187 36 28 11 0 0 0 0 0
0 0 0 0 0 0 0 0 0 0 0 0 0 0 0 0 0 0 0 0 0 0 0 0 0 0 0 0 0 0 0 0 4 21 65 34 13 59 29 251 193 39 39 17 8 0 0 0 0
CIN
0 0 0 0 0 0 0 0 0 0 0 0 0 -1 -1 -21 -7 -4 -42 -25 -23 -9 -15 -21 -1 -5 -28 -23 -14 -5 0 0 0 -12 -60 -58 -41 -14 -6 -62 -20 -10 0 0 0 0 0 0 0
0 0 0 0 0 0 0 0 0 0 0 0 0 0 0 -3 -96 -87 -46 -31 -16 -8 -12 -43 -10 -2 -7 -17 -1 -2 -2 -9 -66 -86 -126 0 -68 -32 -61 -3 -70 -47 0 0 0 0 0 0 0
0 0 0 0 0 0 0 0 0 0 0 0 0 0 0 -17 0 -48 -42 -46 -26 -15 -1 -31 -5 -6 -26 -8 0 -4 -4 -68 -89 -135 -1 0 -101 -68 -6 -2 -4 -3 0 0 0 0 0 0 0
0 0 0 0 0 0 0 0 0 0 0 0 0 0 0 0 0 -44 -36 -38 -24 -12 0 -45 -1 0 -7 -1 0 -5 -25 -71 -48 0 0 0 -2 -6 -5 -2 -3 -6 -2 0 0 0 0 0 0
-1 0 0 0 0 0 0 0 0 0 0 0 0 0 0 0 -1 0 -25 -24 -46 -18 -3 -53 -3 -1 0 0 -4 -9 -46 -71 -58 -1 -1 0 0 -1 -5 -2 -1 -1 0 0 0 0 0 0 0
-1 0 0 0 0 0 0 0 0 0 0 0 0 0 0 -1 0 -1 -12 -2 -21 -3 -1 -35 -31 -14 -4 -1 0 -20 -41 -1 -1 0 0 -1 0 0 -5 -6 -1 0 0 0 0 0 0 0 0
0 0 0 0 0 0 0 0 0 0 0 0 0 0 0 0 -1 0 0 -20 0 -8 -3 -28 0 -4 -21 -7 -7 -3 -3 -4 -5 -12 -4 -2 -4 -2 -5 -6 -1 0 0 0 0 0 0 0 0
0 0 0 0 0 0 0 0 0 0 0 0 0 0 0 0 0 0 0 0 0 -4 -1 0 0 0 0 0 0 -14 -27 -21 -18 -26 -3 -4 -27 -16 -12 -12 -1 0 0 0 0 0 0 0 0
-4 0 0 0 0 0 0 0 0 0 0 0 0 0 0 0 0 0 0 0 0 -1 -2 0 0 0 0 0 0 0 0 -9 0 0 0 -1 0 0 -1 0 -1 0 0 0 0 0 0 0 0
-1 0 0 0 0 0 0 0 0 0 0 0 0 0 0 0 0 0 0 0 0 0 -2 -19 0 0 0 0 0 0 0 0 0 -1 -1 0 0 0 0 0 0 0 0 0 0 0 0 0 0
0 0 0 0 0 0 0 0 0 0 0 0 0 0 0 0 0 0 0 0 0 0 0 -4 -32 0 0 0 0 0 0 0 0 0 0 0 0 0 0 0 0 0 0 0 0 0 0 0 0
0 0 0 0 0 0 0 0 0 0 0 0 0 0 0 0 0 0 0 0 0 0 0 -3 -38 0 0 0 0 0 0 0 0 0 0 0 0 0 0 0 0 0 0 0 0 0 0 0 0
0 0 0 0 0 0 0 0 0 0 0 0 0 0 0 0 0 0 0 0 0 0 0 0 -2 -30 0 0 0 0 0 0 0 0 0 0 0 0 0 0 0 0 0 0 0 0 0 0 0
-3 -14 0 0 0 -2 0 0 0 0 0 0 0 0 0 0 0 0 0 0 0 0 0 0 -19 -8 -1 0 0 0 0 0 0 0 0 0 0 0 0 0 0 0 0 0 0 0 0 0 0
-5 -1 -12 -1 -1 -1 0 0 0 0 0 0 0 0 0 0 0 -114 0 0 0 0 0 0 0 -1 0 0 0 0 0 0 0 0 0 0 0 0 0 0 0 0 0 0 0 0 0 -4 -3
0 0 0 0 0 0 0 0 0 0 0 0 0 0 0 0 0 -121 0 0 0 0 0 0 0 0 0 0 0 0 0 0 0 0 0 0 0 0 0 0 0 0 0 0 0 0 -1 -4 -3
0 0 -1 -1 0 0 0 0 0 0 0 0 0 0 0 0 0 0 -84 -6 0 0 0 0 0 0 0 0 0 0 0 0 0 0 0 0 0 0 0 0 0 0 -1 -13 -26 -21 -23 -16 -4
0 -1 0 0 0 0 0 0 0 0 0 0 0 0 0 0 0 0 -52 -172 0 0 0 0 0 0 0 0 0 0 0 0 0 0 0 0 0 0 0 -7 0 0 -11 -43 -52 -36 -46 -29 -45
0 0 0 0 0 0 0 0 0 0 0 0 0 0 0 0 0 0 0 0 0 0 0 0 0 0 0 0 0 0 0 0 0 0 0 0 0 0 -73 -44 -4 -2 -21 -20 -16 -35 -36 -46 -42
0 0 0 0 0 0 0 0 0 0 0 0 0 0 0 0 0 0 0 0 -77 -199 -17 0 0 0 0 0 0 0 0 0 0 0 0 -1 -15 -60 0 -53 -58 -23 -6 -9 -19 -36 -19 -14 -26
0 0 0 0 0 0 0 0 0 0 0 0 0 0 0 0 0 0 0 0 -178 -168 -154 -209 0 0 0 0 0 0 0 0 0 -1 -143 -13 -36 -38 -65 -70 -53 -67 -46 -40 -47 -29 -12 -7 -23
-2 0 0 0 -1 0 0 0 0 0 0 0 0 0 0 0 0 0 0 0 -296 -232 -121 -122 -124 -123 0 0 0 0 0 0 0 -110 -91 -7 -49 -41 -34 -45 -42 -53 -40 -17 -8 -10 -7 -6 -18
-8 -3 0 -6 0 0 0 0 0 0 0 0 0 0 0 0 0 0 0 0 0 -117 -205 -126 -113 -104 -101 -140 -170 -120 -133 -116 -95 -72 -69 -112 -125 -35 -46 -46 -36 -20 -11 -5 -19 -9 -4 -6 -10
-1 0 0 0 0 0 0 0 0 0 0 0 0 0 0 0 0 0 0 0 0 0 -296 -250 -208 -166 -96 -81 -103 -123 -93 -79 -43 -14 -32 -28 -87 -144 -38 -54 -40 -37 -47 -23 -20 -8 -3 -9 0
0 0 0 0 0 0 0 0 0 0 0 0 0 0 0 0 0 0 0 0 0 0 -362 -367 0 -116 -207 -96 -87 -96 -89 -54 -28 -7 -19 -32 -129 -145 -70 -81 -74 -46 -17 -34 -15 -4 0 0 0
0 0 0 0 0 0 0 0 0 0 0 0 0 0 0 0 0 0 0 0 0 0 0 0 0 0 -397 -198 -133 -108 -87 -68 -36 -19 -20 -53 -144 -127 -125 -23 -81 -64 -43 -25 -9 -9 0 0 0
0 0 0 0 0 0 0 0 0 0 0 0 0 0 0 0 0 0 0 0 0 0 0 0 0 0 0 -397 -258 -146 -113 -99 -105 -82 -20 -59 -111 -178 -97 -124 -5 -60 -45 -19 -19 -13 0 0 0
0 0 0 0 0 0 0 0 0 0 0 0 0 0 0 0 0 0 0 0 0 0 0 0 0 0 0 0 -76 -330 -238 -211 -221 -193 -164 -110 -64 -189 -97 -59 -88 -13 -15 -7 -1 0 0 0 0
0 0 0 0 0 0 0 0 0 0 0 0 0 0 0 0 0 0 0 0 0 0 0 0 0 0 0 0 0 0 -420 -98 0 -90 -247 -215 -63 -151 -62 -1 -24 -104 -2 -2 0 0 0 0 0
0 0 0 0 0 0 0 0 0 0 0 0 0 0 0 0 0 0 0 0 0 0 0 0 0 0 0 0 0 0 0 0 -4 -176 -198 -212 -271 -92 -92 0 -6 -18 -5 -32 0 0 0 0 0
Wind_Speed
nan nan nan nan nan nan nan nan nan nan nan nan nan nan nan nan nan 8 nan 17 20 9 8 10 13 15 14 11 16 13 9 10 13 14 nan nan nan 12 nan 13 9 nan nan nan nan nan nan nan nan
nan nan nan nan nan nan nan nan nan nan nan nan nan nan nan nan nan nan nan 20 17 8 5 6 11 12 10 10 13 11 9 9 10 nan nan nan nan 10 nan nan nan nan nan nan nan nan nan nan nan
nan nan nan nan nan nan nan nan nan nan nan nan nan nan nan nan nan nan nan nan nan 4 4 7 5 6 6 5 14 13 10 9 9 nan nan nan nan 11 nan nan nan nan nan nan nan nan nan nan nan
nan nan nan nan nan nan nan nan nan nan nan nan nan nan nan nan nan nan nan nan 11 5 5 5 3 4 6 6 6 10 9 7 nan nan nan nan nan nan nan nan nan nan nan nan nan nan nan nan nan
nan nan nan nan nan nan nan nan nan nan nan nan nan nan nan nan nan nan nan nan nan nan 5 nan 4 7 12 5 9 11 9 nan nan nan nan nan nan nan nan nan nan nan nan nan nan nan nan nan nan
nan nan nan nan nan nan nan nan nan nan nan nan nan nan nan nan nan nan nan nan nan 2 2 nan nan nan 11 8 9 9 nan nan nan nan nan nan nan nan nan nan nan nan nan nan nan nan nan nan nan
nan nan nan nan nan nan nan nan nan nan nan nan nan nan nan nan nan nan nan nan 4 nan 2 nan nan nan nan nan nan nan nan nan nan nan nan nan nan nan nan nan nan nan nan nan nan nan nan nan nan
nan nan nan nan nan nan nan nan nan nan nan nan nan nan nan nan 13 nan nan nan nan nan nan nan nan nan nan nan nan nan nan nan nan nan nan nan nan nan nan nan nan nan nan nan nan nan nan nan nan
nan nan nan nan nan nan nan nan nan nan nan nan nan nan nan nan nan nan nan nan nan nan nan nan nan nan nan nan nan nan nan nan nan nan nan nan nan nan nan nan nan nan nan nan nan nan nan nan nan
nan nan nan nan nan nan nan nan nan nan nan nan nan nan nan nan nan nan nan nan nan nan nan nan nan nan nan nan nan nan nan nan nan nan nan nan nan nan nan nan nan nan nan nan nan nan nan nan nan
nan nan nan nan nan nan nan nan nan nan nan nan nan nan nan nan nan nan nan nan nan nan nan nan nan nan nan nan nan nan nan nan nan nan nan nan nan nan nan nan nan nan nan nan nan nan nan nan nan
nan nan nan nan nan nan nan nan nan nan nan nan nan nan nan nan nan nan nan nan nan nan nan nan nan nan nan nan nan nan nan nan nan nan nan nan nan nan nan nan nan nan nan nan nan nan nan nan nan
nan nan nan nan nan nan nan nan nan nan nan nan nan nan nan nan nan nan nan nan nan nan nan nan 8 nan nan nan nan nan nan nan nan nan nan nan nan nan nan nan nan nan nan nan nan nan nan nan nan
nan nan nan nan nan nan nan nan nan nan nan nan nan nan nan nan nan nan nan nan nan nan nan nan nan nan nan nan nan nan nan nan nan nan nan nan nan nan nan nan nan nan nan nan nan nan nan nan nan
nan nan nan nan nan nan nan nan nan nan nan nan nan nan nan nan nan nan nan nan nan nan nan nan nan nan nan nan nan nan nan nan nan nan nan nan nan nan nan nan nan nan nan nan nan nan nan nan nan
nan nan nan nan nan nan nan nan nan nan nan nan nan nan nan nan nan nan nan nan nan nan nan nan nan nan nan nan nan nan nan nan nan nan nan nan nan nan nan nan nan nan nan nan nan nan nan nan nan
nan nan nan nan nan nan nan nan nan nan nan nan nan nan nan nan nan nan nan nan nan nan nan nan nan nan nan nan nan nan nan nan nan nan nan nan nan nan nan nan nan nan nan nan nan nan nan nan nan
nan nan nan nan nan nan nan nan nan nan nan nan nan nan nan nan nan nan nan nan nan nan nan nan nan nan nan nan nan nan nan nan nan nan nan nan nan nan nan nan nan nan nan nan nan nan nan nan nan
nan nan nan nan nan nan nan nan nan nan nan nan nan nan nan nan nan nan nan nan nan nan nan nan nan nan nan nan nan nan nan nan nan nan nan nan nan nan nan nan nan nan nan nan nan nan nan nan nan
nan nan nan nan nan nan nan nan nan nan nan nan nan nan nan nan nan nan nan nan nan nan nan nan nan nan nan nan nan nan nan nan nan nan nan nan nan nan nan nan nan nan nan nan nan nan nan nan nan
nan nan nan nan nan nan nan nan nan nan nan nan nan nan nan nan nan nan nan nan nan nan nan nan nan nan nan nan nan nan nan nan nan nan nan nan nan nan nan nan nan nan nan nan nan nan nan nan nan
nan nan nan nan nan nan nan nan nan nan nan nan nan nan nan nan nan nan nan nan nan nan 29 26 28 nan nan nan nan nan nan nan nan nan nan nan nan nan nan nan nan nan nan nan nan nan nan nan nan
nan nan nan nan nan nan nan nan nan nan nan nan nan nan nan nan nan nan nan nan nan nan nan 33 32 31 nan nan nan nan nan nan nan nan 37 nan nan nan nan nan nan nan nan nan nan nan nan nan nan
nan nan nan nan nan nan nan nan nan nan nan nan nan nan nan nan nan nan nan nan nan nan nan nan nan nan 34 35 36 34 34 35 38 38 40 41 nan nan nan nan nan nan nan nan nan nan nan nan nan
nan nan nan nan nan nan nan nan nan nan nan nan nan nan nan nan nan nan nan nan nan nan nan nan nan nan nan 36 37 37 38 38 36 40 42 44 nan nan nan nan nan nan nan nan nan nan nan nan nan
nan nan nan nan nan nan nan nan nan nan nan nan nan nan nan nan nan nan nan nan nan nan nan nan nan nan nan nan 39 41 40 42 43 43 46 nan nan nan nan nan nan nan nan nan nan nan nan nan nan
nan nan nan nan nan nan nan nan nan nan nan nan nan nan nan nan nan nan nan nan nan nan nan nan nan nan nan nan nan 46 43 42 44 44 47 46 nan nan nan nan nan nan nan nan nan nan nan nan nan
nan nan nan nan nan nan nan nan nan nan nan nan nan nan nan nan nan nan nan nan nan nan nan nan nan nan nan nan nan nan nan nan nan nan nan nan 50 nan nan 55 nan nan nan nan nan nan nan nan nan
nan nan nan nan nan nan nan nan nan nan nan nan nan nan nan nan nan nan nan nan nan nan nan nan nan nan nan nan nan nan nan nan nan nan nan nan 61 nan nan 57 60 nan nan nan nan nan nan nan nan
nan nan nan nan nan nan nan nan nan nan nan nan nan nan nan nan nan nan nan nan nan nan nan nan nan nan nan nan nan nan nan nan nan nan nan nan nan nan nan 63 63 nan nan nan nan nan nan nan nan
Wind_Direction
nan nan nan nan nan nan nan nan nan nan nan nan nan nan nan nan nan 283 nan 322 315 317 262 260 245 262 261 245 207 192 216 237 247 244 nan nan nan 252 nan 261 271 nan nan nan nan nan nan nan nan
nan nan nan nan nan nan nan nan nan nan nan nan nan nan nan nan nan nan nan 331 323 322 254 237 228 249 262 248 206 211 225 247 238 nan nan nan nan 261 nan nan nan nan nan nan nan nan nan nan nan
nan nan nan nan nan nan nan nan nan nan nan nan nan nan nan nan nan nan nan nan nan 341 238 252 237 243 216 193 190 224 245 252 243 nan nan nan nan 258 nan nan nan nan nan nan nan nan nan nan nan
nan nan nan nan nan nan nan nan nan nan nan nan nan nan nan nan nan nan nan nan 340 307 283 277 235 207 154 161 207 239 244 253 nan nan nan nan nan nan nan nan nan nan nan nan nan nan nan nan nan
nan nan nan nan nan nan nan nan nan nan nan nan nan nan nan nan nan nan nan nan nan nan 317 nan 150 162 166 179 230 243 230 nan nan nan nan nan nan nan nan nan nan nan nan nan nan nan nan nan nan
nan nan nan nan nan nan nan nan nan nan nan nan nan nan nan nan nan nan nan nan nan 359 11 nan nan nan 193 224 238 253 nan nan nan nan nan nan nan nan nan nan nan nan nan nan nan nan nan nan nan
nan nan nan nan nan nan nan nan nan nan nan nan nan nan nan nan nan nan nan nan 294 nan 129 nan nan nan nan nan nan nan nan nan nan nan nan nan nan nan nan nan nan nan nan nan nan nan nan nan nan
nan nan nan nan nan nan nan nan nan nan nan nan nan nan nan nan 302 nan nan nan nan nan nan nan nan nan nan nan nan nan nan nan nan nan nan nan nan nan nan nan nan nan nan nan nan nan nan nan nan
nan nan nan nan nan nan nan nan nan nan nan nan nan nan nan nan nan nan nan nan nan nan nan nan nan nan nan nan nan nan nan nan nan nan nan nan nan nan nan nan nan nan nan nan nan nan nan nan nan
nan nan nan nan nan nan nan nan nan nan nan nan nan nan nan nan nan nan nan nan nan nan nan nan nan nan nan nan nan nan nan nan nan nan nan nan nan nan nan nan nan nan nan nan nan nan nan nan nan
nan nan nan nan nan nan nan nan nan nan nan nan nan nan nan nan nan nan nan nan nan nan nan nan nan nan nan nan nan nan nan nan nan nan nan nan nan nan nan nan nan nan nan nan nan nan nan nan nan
nan nan nan nan nan nan nan nan nan nan nan nan nan nan nan nan nan nan nan nan nan nan nan nan nan nan nan nan nan nan nan nan nan nan nan nan nan nan nan nan nan nan nan nan nan nan nan nan nan
nan nan nan nan nan nan nan nan nan nan nan nan nan nan nan nan nan nan nan nan nan nan nan nan 258 nan nan nan nan nan nan nan nan nan nan nan nan nan nan nan nan nan nan nan nan nan nan nan nan
nan nan nan nan nan nan nan nan nan nan nan nan nan nan nan nan nan nan nan nan nan nan nan nan nan nan nan nan nan nan nan nan nan nan nan nan nan nan nan nan nan nan nan nan nan nan nan nan nan
nan nan nan nan nan nan nan nan nan nan nan nan nan nan nan nan nan nan nan nan nan nan nan nan nan nan nan nan nan nan nan nan nan nan nan nan nan nan nan nan nan nan nan nan nan nan nan nan nan
nan nan nan nan nan nan nan nan nan nan nan nan nan nan nan nan nan nan nan nan nan nan nan nan nan nan nan nan nan nan nan nan nan nan nan nan nan nan nan nan nan nan nan nan nan nan nan nan nan
nan nan nan nan nan nan nan nan nan nan nan nan nan nan nan nan nan nan nan nan nan nan nan nan nan nan nan nan nan nan nan nan nan nan nan nan nan nan nan nan nan nan nan nan nan nan nan nan nan
nan nan nan nan nan nan nan nan nan nan nan nan nan nan nan nan nan nan nan nan nan nan nan nan nan nan nan nan nan nan nan nan nan nan nan nan nan nan nan nan nan nan nan nan nan nan nan nan nan
nan nan nan nan nan nan nan nan nan nan nan nan nan nan nan nan nan nan nan nan nan nan nan nan nan nan nan nan nan nan nan nan nan nan nan nan nan nan nan nan nan nan nan nan nan nan nan nan nan
nan nan nan nan nan nan nan nan nan nan nan nan nan nan nan nan nan nan nan nan nan nan nan nan nan nan nan nan nan nan nan nan nan nan nan nan nan nan nan nan nan nan nan nan nan nan nan nan nan
nan nan nan nan nan nan nan nan nan nan nan nan nan nan nan nan nan nan nan nan nan nan nan nan nan nan nan nan nan nan nan nan nan nan nan nan nan nan nan nan nan nan nan nan nan nan nan nan nan
nan nan nan nan nan nan nan nan nan nan nan nan nan nan nan nan nan nan nan nan nan nan 272 272 273 nan nan nan nan nan nan nan nan nan nan nan nan nan nan nan nan nan nan nan nan nan nan nan nan
nan nan nan nan nan nan nan nan nan nan nan nan nan nan nan nan nan nan nan nan nan nan nan 266 269 272 nan nan nan nan nan nan nan nan 279 nan nan nan nan nan nan nan nan nan nan nan nan nan nan
nan nan nan nan nan nan nan nan nan nan nan nan nan nan nan nan nan nan nan nan nan nan nan nan nan nan 270 275 279 279 275 271 269 270 272 273 nan nan nan nan nan nan nan nan nan nan nan nan nan
nan nan nan nan nan nan nan nan nan nan nan nan nan nan nan nan nan nan nan nan nan nan nan nan nan nan nan 272 274 276 275 275 274 273 271 274 nan nan nan nan nan nan nan nan nan nan nan nan nan
nan nan nan nan nan nan nan nan nan nan nan nan nan nan nan nan nan nan nan nan nan nan nan nan nan nan nan nan 275 273 274 269 271 275 274 nan nan nan nan nan nan nan nan nan nan nan nan nan nan
nan nan nan nan nan nan nan nan nan nan nan nan nan nan nan nan nan nan nan nan nan nan nan nan nan nan nan nan nan 271 270 275 273 275 275 276 nan nan nan nan nan nan nan nan nan nan nan nan nan
nan nan nan nan nan nan nan nan nan nan nan nan nan nan nan nan nan nan nan nan nan nan nan nan nan nan nan nan nan nan nan nan nan nan nan nan 278 nan nan 283 nan nan nan nan nan nan nan nan nan
nan nan nan nan nan nan nan nan nan nan nan nan nan nan nan nan nan nan nan nan nan nan nan nan nan nan nan nan nan nan nan nan nan nan nan nan 275 nan nan 283 284 nan nan nan nan nan nan nan nan
nan nan nan nan nan nan nan nan nan nan nan nan nan nan nan nan nan nan nan nan nan nan nan nan nan nan nan nan nan nan nan nan nan nan nan nan nan nan nan 283 283 nan nan nan nan nan nan nan nan